Luderitz / Diaz Point, Namibia

3:36 AM CAT on April 24, 2018 (GMT +0200)
Luderitz / Diaz Point

Weather History for FYLZ - March, 2014

Change the Weather History Date:

Sunday, March 9, 2014

  Actual Average Record
Temperature  
Mean Temperature 60 °F -  
Max Temperature 69 °F - - ()
Min Temperature 51 °F - - ()
Degree Days  
Heating Degree Days 5    
Growing Degree Days 10 (Base 50)    
Moisture  
Dew Point 42 °F    
Average Humidity 56    
Maximum Humidity 67    
Minimum Humidity 33    
Precipitation  
Precipitation 0.00 in - - ()
Sea Level Pressure  
Sea Level Pressure 29.87 in    
Wind  
Wind Speed 21 mph ()    
Max Wind Speed 31 mph    
Max Gust Speed -    
T = Trace of Precipitation, MM = Missing Value Source: Averaged Metar Reports

Daily Weather History Graph

Daily Weather History Graph

Search for Another Location

Airport or City:

Astronomy

Mar. 09, 2014 Rise Set
Actual Time 6:56 AM WAST 7:21 PM WAST
Civil Twilight 6:33 AM WAST 7:45 PM WAST
Nautical Twilight 6:06 AM WAST 8:12 PM WAST
Astronomical Twilight 5:38 AM WAST 8:40 PM WAST
Moon 2:28 PM WAST (3/9) 12:40 AM WAST (3/9)
Length of Visible Light 13h 11m
Length of Day
12h 25m
First Quarter, 58% of the Moon is Illuminated
Mar 9
First Quarter
Mar 16
Full
Mar 24
Last Quarter
Mar 30
New
Apr 7
First Quarter

Hourly Weather History & Observations

Time (WAST) Temp. Dew Point Humidity Pressure Visibility Wind Dir Wind Speed Gust Speed Precip Events Conditions
12:00 AM 59.0 °F 41.0 °F 51% 29.92 in - SSE 19.6 mph - N/A   Unknown
1:00 AM 57.2 °F 42.8 °F 59% 29.92 in - SSE 27.6 mph - N/A   Unknown
2:00 AM 55.4 °F 42.8 °F 63% 29.92 in - SSE 25.3 mph - N/A   Unknown
3:00 AM 55.4 °F 44.6 °F 67% 29.89 in - SSE 27.6 mph - N/A   Unknown
4:00 AM 55.4 °F 44.6 °F 67% 29.86 in - SSE 28.8 mph - N/A   Unknown
5:00 AM 53.6 °F 42.8 °F 67% 29.86 in - South 24.2 mph - N/A   Unknown
6:00 AM 51.8 °F 41.0 °F 67% 29.89 in - South 20.7 mph - N/A   Unknown
7:00 AM 53.6 °F 42.8 °F 67% 29.89 in - SSE 19.6 mph - N/A   Unknown
8:00 AM 55.4 °F 42.8 °F 63% 29.89 in - SSE 17.3 mph - N/A   Unknown
9:00 AM 59.0 °F 39.2 °F 48% 29.89 in - SSE 21.9 mph - N/A   Unknown
10:00 AM 64.4 °F 41.0 °F 42% 29.89 in - SSE 23.0 mph - N/A   Unknown
11:00 AM 66.2 °F 39.2 °F 37% 29.86 in - South 27.6 mph - N/A   Unknown
12:00 PM 69.8 °F 39.2 °F 33% 29.86 in - South 27.6 mph - N/A   Unknown
1:00 PM 68.0 °F 42.8 °F 40% 29.83 in - SSW 28.8 mph - N/A   Unknown
2:00 PM 64.4 °F 44.6 °F 49% 29.83 in - SSW 31.1 mph - N/A   Unknown
3:00 PM 62.6 °F 44.6 °F 52% 29.80 in - SSW 31.1 mph - N/A   Unknown
9:00 PM 55.4 °F 44.6 °F 67% 29.83 in - South 26.5 mph - N/A   Unknown
10:00 PM 55.4 °F 42.8 °F 63% 29.86 in - South 23.0 mph - N/A   Unknown
11:00 PM 55.4 °F 42.8 °F 63% 29.86 in - South 21.9 mph - N/A   Unknown